CAPE
0 0 0 0 0 0 0 0 3 0 0 0 2 0 0 0 0 0 0 0 5 10 0 2 10 15 23 20 18 7 18 12 6 1 2 0 0 0 0 0 0 0 64
0 0 0 0 0 0 2 1 0 1 1 0 0 0 0 1 0 0 0 7 14 17 3 23 26 27 22 15 18 20 23 21 15 21 7 1 0 0 0 0 0 0 0
0 0 0 0 0 0 0 1 2 2 2 0 0 0 0 0 0 2 0 0 8 16 32 15 21 33 30 18 28 28 32 36 17 29 20 37 9 11 0 0 0 0 0
0 0 0 0 0 0 0 3 2 2 2 6 4 5 4 4 7 8 2 0 1 15 17 0 13 41 38 21 33 45 44 39 28 20 23 19 24 23 10 11 0 0 0
0 0 0 0 0 0 0 0 4 4 3 4 7 10 7 10 7 7 6 0 0 7 11 4 4 18 34 33 32 33 46 30 33 35 26 22 20 17 25 13 6 0 0
0 0 0 0 0 0 0 4 5 4 3 6 6 9 7 10 3 3 4 1 0 5 12 12 7 17 15 34 27 35 44 20 23 26 27 33 29 27 23 16 12 6 0
0 0 0 0 0 0 0 4 6 7 8 7 5 9 1 15 1 3 5 5 0 4 8 23 13 25 0 0 8 23 33 17 23 27 22 24 35 34 30 24 14 19 2
0 0 0 0 0 0 0 2 5 4 6 5 7 1 13 6 5 2 3 4 12 14 8 16 10 32 12 2 5 23 18 12 12 8 20 17 25 22 54 52 35 11 4
0 0 0 0 0 1 1 2 3 2 3 6 3 2 5 4 7 5 6 6 13 13 13 6 5 20 16 0 7 7 24 11 19 7 12 11 22 16 20 30 35 35 12
0 0 0 0 0 3 3 4 4 3 1 2 1 0 5 6 8 5 5 6 14 14 12 5 3 16 28 8 10 2 13 11 4 13 12 7 7 10 9 8 11 25 23
0 0 0 0 0 1 0 1 1 1 2 1 2 2 4 4 4 4 7 7 17 14 13 6 9 26 23 13 4 5 0 13 5 5 13 4 5 12 5 6 6 22 10
0 0 0 0 0 0 0 1 4 0 0 0 0 0 0 2 3 5 6 9 12 17 9 1 6 23 23 10 3 5 11 15 1 0 12 5 9 5 8 6 3 3 3
0 0 0 0 0 0 0 0 0 0 0 0 0 0 0 1 3 5 4 10 10 14 3 9 11 13 9 4 2 1 5 6 0 0 4 3 4 4 5 6 2 2 3
0 0 0 0 0 0 0 0 0 0 0 0 0 0 0 1 3 4 3 7 12 7 5 8 13 22 1 2 2 0 0 0 0 0 0 6 0 3 2 8 1 1 4
0 0 0 0 0 0 0 0 0 0 0 0 0 0 0 0 3 3 3 6 12 10 7 5 5 15 3 8 2 0 0 5 0 0 0 4 1 2 1 3 0 0 1
0 0 0 0 0 0 0 0 0 0 0 0 0 0 0 0 0 3 3 2 8 7 10 10 10 8 3 8 7 0 0 0 0 0 0 0 1 0 0 3 0 0 0
0 0 0 0 0 0 0 0 0 0 0 0 0 0 0 0 0 1 0 0 2 5 6 7 1 3 0 6 11 1 0 0 2 0 0 0 7 5 0 1 0 0 3
0 0 0 0 0 0 0 0 0 0 0 0 0 0 0 0 0 0 0 0 3 8 2 6 0 0 1 3 9 7 0 0 1 1 0 0 4 10 3 2 0 0 0
0 0 0 0 0 0 0 0 0 0 0 0 0 0 0 0 0 0 0 0 0 1 0 2 0 0 0 3 9 9 3 0 0 3 1 0 9 22 18 3 2 0 0
0 0 0 0 0 0 0 0 0 0 0 0 0 0 0 0 0 0 0 0 0 0 0 0 0 6 0 1 9 13 7 3 2 1 3 9 20 20 12 4 6 3 2
0 0 0 0 0 0 0 0 0 0 0 0 0 0 0 0 0 0 0 0 0 0 0 0 0 0 0 0 11 16 11 16 8 3 13 10 26 23 19 14 8 6 1
0 0 0 0 0 0 0 0 0 0 0 0 0 0 0 0 0 0 0 0 0 0 0 0 0 0 0 2 6 7 14 15 4 6 20 11 20 18 16 11 12 6 1
0 0 0 0 0 0 0 0 0 0 0 0 0 0 0 0 0 0 0 0 0 0 0 0 0 1 1 0 4 6 12 11 1 18 9 9 11 9 7 10 8 0 1
2 1 0 0 0 0 0 0 0 0 0 0 0 0 0 0 0 0 0 0 0 0 0 0 0 1 1 0 0 0 1 6 0 6 3 0 6 0 0 0 2 0 0
1 0 0 0 0 0 0 0 0 0 0 0 0 0 0 0 0 0 0 0 0 0 0 0 0 0 0 0 4 3 6 3 0 1 0 0 0 0 0 0 0 0 0
0 0 0 0 0 0 0 0 0 0 0 0 0 0 0 0 0 0 0 0 0 0 0 0 0 0 0 3 5 7 16 9 5 2 2 1 1 1 1 0 0 0 0
CIN
0 0 0 0 0 0 0 0 -1 0 0 0 0 0 0 0 0 -1 -1 0 -1 0 0 0 0 0 0 0 0 0 0 0 0 0 0 0 0 0 0 0 0 0 -99
0 0 0 0 0 0 -1 -1 -1 0 0 0 0 0 0 -1 -2 0 0 -1 0 0 -1 0 0 0 0 0 0 0 0 0 0 0 0 0 0 0 0 0 0 0 0
0 0 0 0 0 0 0 0 0 0 0 0 0 0 0 0 0 -1 0 0 0 -1 0 0 0 0 0 0 0 0 0 0 0 0 0 0 0 0 0 0 0 0 0
0 0 0 0 0 0 0 0 0 0 0 0 0 -1 0 0 -1 0 -7 0 -1 -1 0 0 0 0 -1 0 0 0 0 0 0 0 0 0 0 0 0 -1 0 0 0
0 0 0 0 0 0 0 0 0 0 0 0 -1 0 0 -1 -1 -1 -1 0 0 0 0 -1 -1 0 0 0 0 0 0 0 0 0 0 0 0 0 0 0 0 0 0
0 0 0 0 0 0 0 0 0 0 0 0 -1 0 -2 -1 -2 -3 -1 -2 0 0 0 0 -1 -1 0 0 0 0 0 0 0 0 0 0 0 0 0 0 0 0 0
0 0 0 0 0 0 -1 0 0 0 0 0 0 -1 -2 -1 -2 -1 -1 -1 0 -2 -2 0 -1 -1 0 0 0 0 0 0 0 0 0 0 0 0 0 0 0 0 0
0 0 0 0 0 0 0 0 0 0 0 0 0 -1 -1 -1 -2 -2 -1 -2 -1 -2 -4 -1 -1 0 0 -1 0 0 0 0 0 0 0 0 0 0 0 0 0 0 0
0 0 0 0 0 0 0 0 0 0 0 0 -1 -2 -3 -3 -2 -4 -3 -3 -3 -1 -3 -3 -4 0 -1 -3 0 -2 0 -1 0 0 0 0 0 0 0 0 0 0 0
0 0 0 0 0 0 0 -1 0 0 -1 -1 -2 0 -2 -3 -4 -3 -2 -3 -3 -4 -5 -3 -6 -1 0 -3 -1 -1 -1 -3 -1 0 0 0 0 0 0 0 0 0 0
0 0 0 0 0 0 0 -1 0 0 -1 -1 -3 -4 -3 -3 -2 -2 -2 -4 -5 -6 -5 -2 -2 0 0 -1 -1 -1 0 -1 -4 0 0 0 0 0 0 0 0 0 0
0 0 0 0 0 0 0 0 -1 -1 0 0 0 0 -1 -1 -1 -1 -2 -4 -4 -6 -4 -9 -2 0 0 -1 -1 0 0 -1 -1 0 0 0 0 0 0 0 0 0 0
0 0 0 0 0 0 0 0 0 0 0 0 0 0 0 -2 -1 -1 -3 -3 -5 -3 -6 -1 -1 0 0 0 -1 -1 0 0 -3 0 -2 -1 0 0 0 0 0 0 0
0 0 0 0 0 0 0 0 0 0 0 0 0 0 0 -1 -1 -2 -4 -4 -4 -5 -7 -2 -1 0 0 -1 0 0 0 0 -8 0 0 -4 0 0 0 0 -2 0 0
0 0 0 0 0 0 0 0 0 0 0 0 0 0 0 0 -1 -1 -3 -5 -4 -5 -7 -5 -3 -1 0 0 -1 0 0 -11 -1 0 0 -3 0 0 0 0 0 0 0
0 0 0 0 0 0 0 0 0 0 0 0 0 0 0 0 -1 -2 -4 -6 -7 -5 -5 -8 -7 -5 0 0 0 0 0 -1 0 0 0 0 0 0 0 -1 0 0 0
0 0 0 0 0 0 0 0 0 0 0 0 0 0 0 0 0 -2 -3 0 -6 -6 -6 -5 -3 -5 0 0 0 0 0 0 0 0 0 0 0 0 0 0 0 0 -6
0 0 0 0 0 0 0 0 0 0 0 0 0 0 0 0 0 0 0 0 -7 -6 -8 -7 0 0 0 0 0 0 0 0 -1 0 0 0 0 0 0 0 0 0 0
0 0 0 0 0 0 0 0 0 0 0 0 0 0 0 0 0 0 -9 0 -5 -2 0 -1 0 0 0 0 0 0 0 0 0 0 0 -1 0 0 0 0 0 0 0
0 0 0 0 0 0 0 0 0 0 0 0 0 0 0 0 0 0 0 0 0 0 0 0 0 0 0 0 0 0 0 0 0 0 0 0 0 0 0 0 0 0 0
0 0 0 0 0 0 0 0 0 0 0 0 0 0 0 0 0 0 0 0 0 0 0 0 0 0 0 0 0 0 0 0 0 -1 0 0 0 0 0 0 0 0 0
0 0 0 0 0 0 0 0 0 0 0 0 0 0 0 0 0 0 0 0 0 0 0 0 0 0 0 0 0 0 0 0 0 0 0 0 0 0 0 0 0 0 0
0 0 0 0 0 0 0 0 0 0 0 0 0 0 0 0 0 0 0 0 0 0 0 0 0 0 0 0 0 0 0 0 0 0 0 0 0 0 0 0 0 -2 -1
0 0 0 0 0 0 0 0 0 0 0 0 0 0 0 0 0 0 0 0 0 0 0 0 0 0 0 0 0 -1 -1 0 0 -1 -1 0 -1 0 -1 -1 -1 -2 0
0 -1 0 0 0 0 0 0 0 0 0 0 0 0 0 0 0 0 0 0 0 0 0 0 0 0 0 -2 -2 -1 -1 -2 0 -2 -2 -1 -1 -1 -1 -1 -1 0 0
0 0 0 0 0 0 0 0 0 0 0 0 0 0 0 0 0 0 0 0 0 0 0 0 0 0 -2 0 0 0 0 0 0 -1 -1 -1 -1 -1 -1 -1 -1 0 -1
Wind_Speed
11 12 12 15 15 14 13 13 14 16 13 11 11 11 11 10 9 9 15 15 14 14 15 12 12 12 11 13 13 13 14 11 12 14 15 12 16 14 8 11 11 14 12
10 11 13 13 12 11 12 15 16 16 13 11 11 11 10 9 9 10 12 13 14 13 14 13 12 13 10 13 13 14 11 8 10 9 13 11 9 10 15 12 12 15 12
10 11 11 13 12 13 15 14 13 14 13 13 10 10 9 9 8 8 8 11 13 13 13 15 13 13 10 11 13 13 15 10 10 11 7 6 7 17 6 18 9 16 12
9 11 12 12 11 13 12 12 13 14 12 11 10 11 10 10 9 10 8 8 12 12 14 17 15 13 10 12 12 12 11 12 11 10 6 9 11 6 11 7 16 12 13
9 10 11 10 14 13 10 12 12 12 14 13 12 10 10 10 8 9 11 9 11 14 15 16 15 14 11 12 14 14 12 10 9 9 9 10 9 8 8 12 13 14 11
8 9 10 10 13 12 12 11 12 12 13 13 13 13 14 12 11 12 9 7 8 9 13 15 14 12 14 15 13 13 13 11 11 10 10 9 9 9 8 11 12 15 9
7 7 9 13 12 13 13 11 12 12 13 12 13 12 12 11 11 11 10 11 7 7 11 14 14 11 13 15 13 12 11 11 11 12 10 9 8 6 6 8 9 8 9
6 8 13 10 14 11 12 12 13 13 14 13 12 12 13 10 8 10 9 9 9 8 10 11 13 14 13 14 14 9 9 12 9 15 12 10 8 9 6 5 7 9 7
6 10 12 12 11 11 11 11 12 13 12 11 8 10 10 11 11 11 10 9 10 9 11 11 14 15 13 15 15 10 8 10 10 11 10 11 8 9 8 6 6 4 5
8 10 10 9 9 9 9 9 10 11 9 8 10 10 11 11 10 9 11 11 10 10 11 11 13 15 13 16 14 12 12 10 9 9 9 12 10 10 9 9 7 5 4
8 9 7 9 8 8 9 8 8 9 10 11 10 11 10 12 11 10 10 10 10 10 11 12 13 14 13 16 15 13 13 14 10 13 10 13 14 9 10 10 9 5 5
6 5 7 8 8 8 8 8 7 10 10 11 10 10 11 11 11 11 11 10 11 10 11 12 13 13 12 16 15 16 13 12 11 14 11 12 12 15 12 11 13 10 5
4 6 6 7 7 7 7 9 9 9 9 10 10 11 11 11 11 11 11 11 11 11 11 10 12 12 13 17 16 15 15 13 7 12 13 12 15 14 14 11 12 11 6
5 5 6 6 5 7 8 9 9 9 9 10 10 10 10 10 10 11 10 10 10 11 10 11 11 11 13 17 18 18 16 15 5 9 13 11 15 15 16 10 11 12 10
4 4 4 5 5 8 8 8 9 9 9 10 10 10 10 10 10 11 10 10 9 9 8 8 9 10 12 14 19 18 18 8 8 8 13 11 22 29 25 11 7 11 10
3 3 4 5 6 7 7 8 9 9 9 9 10 10 10 10 11 10 10 10 9 9 8 7 9 10 10 29 31 26 15 11 8 10 12 13 19 22 27 25 9 11 10
4 2 4 4 5 6 7 8 9 9 9 9 10 10 10 10 11 11 11 11 9 9 10 7 10 11 13 30 30 31 15 15 12 12 12 13 13 17 17 18 19 17 14
4 3 4 3 5 6 7 7 9 9 9 10 11 11 10 10 10 10 11 11 10 8 10 8 10 11 12 29 30 29 16 15 15 13 13 14 14 17 19 14 13 12 13
4 5 2 2 4 5 6 8 9 9 10 11 10 10 10 10 10 10 10 10 10 9 11 11 12 13 13 30 30 23 13 15 15 13 14 15 14 23 25 14 14 13 13
5 4 5 4 1 5 6 9 9 9 10 9 9 10 10 9 8 10 8 10 11 10 11 13 13 17 14 27 30 24 11 14 11 12 12 20 19 22 23 13 13 13 13
5 6 4 2 7 6 6 9 8 8 8 9 9 8 9 8 9 10 9 11 12 12 12 13 13 14 16 18 30 28 12 12 10 10 9 10 23 21 21 19 12 14 12
7 5 2 5 7 8 7 9 7 7 8 7 6 7 7 5 7 10 10 12 12 12 12 13 11 11 13 23 25 27 24 23 11 11 9 11 22 21 21 15 21 19 12
6 3 3 8 8 9 9 7 7 7 6 6 7 7 5 6 6 8 10 8 10 9 10 10 10 11 11 12 26 25 24 23 12 10 16 21 21 20 14 21 21 14 9
4 3 5 9 8 7 7 5 3 6 5 5 5 6 6 8 7 5 6 7 7 7 8 10 10 10 10 12 13 12 11 18 14 12 10 11 13 11 11 10 11 9 9
4 5 10 9 5 4 4 3 5 7 6 5 6 8 6 7 7 5 5 5 4 3 7 7 8 10 11 13 21 19 11 12 13 10 8 10 10 11 11 10 10 9 9
6 10 9 6 3 3 3 5 4 7 8 6 5 5 6 6 6 6 4 1 5 1 9 15 11 8 17 24 26 26 23 25 22 9 11 11 11 12 11 11 10 10 11
Wind_Direction
50 36 48 43 32 36 23 18 28 23 14 2 1 1 359 4 15 15 30 20 16 3 358 353 346 347 350 342 338 337 334 331 332 322 318 296 268 259 275 277 279 278 251
31 32 54 40 34 32 28 28 28 23 17 5 8 358 347 0 14 14 24 18 12 2 354 350 347 346 346 342 341 337 331 327 331 329 308 325 311 22 335 311 339 315 342
30 24 38 52 26 34 34 26 23 22 23 13 15 354 355 352 0 6 24 17 13 353 354 356 351 345 346 344 339 337 338 333 333 342 312 327 322 328 304 318 321 330 313
31 34 27 49 41 38 32 26 26 19 13 15 15 357 359 349 354 357 32 19 4 356 4 357 344 347 350 348 342 343 342 342 338 333 345 295 300 318 313 346 314 342 322
42 38 30 44 62 39 25 37 21 17 7 14 19 1 355 341 350 2 10 28 6 5 3 350 346 348 347 348 346 345 346 349 337 333 324 318 308 299 320 313 333 315 312
42 37 37 47 59 41 36 16 13 20 10 14 15 0 353 355 359 4 359 17 21 355 353 349 342 347 352 351 348 345 344 348 339 335 333 327 322 326 315 305 312 305 308
46 35 37 43 41 46 24 10 13 21 20 12 2 358 358 353 10 3 355 5 8 7 357 349 341 353 358 350 342 334 341 345 344 337 334 329 321 318 309 304 300 298 311
47 45 59 43 49 32 24 8 7 20 12 3 4 353 352 357 15 9 2 1 0 3 359 352 348 346 357 350 337 337 344 342 347 336 343 328 335 329 317 308 302 305 279
46 62 58 45 36 18 19 11 9 9 5 359 3 351 6 358 5 11 5 2 356 357 354 1 355 349 357 350 341 335 337 348 344 336 348 339 335 334 320 315 305 292 299
49 60 66 44 38 23 9 28 12 357 357 353 6 13 349 6 8 8 5 3 352 356 352 5 359 348 356 349 341 340 335 344 351 333 346 347 337 344 335 333 314 307 293
52 59 55 53 33 23 3 34 8 355 5 11 10 12 7 3 7 4 1 359 348 357 2 11 358 346 359 349 342 337 334 338 356 340 338 354 345 339 341 343 339 327 331
76 64 58 40 31 17 5 8 17 19 14 9 12 15 6 3 5 2 358 356 352 359 15 10 351 344 358 348 342 340 334 327 357 346 340 5 351 351 346 355 350 351 355
81 64 42 40 17 7 4 15 29 17 14 13 12 13 6 5 4 359 356 354 353 9 12 0 349 351 0 352 345 339 333 322 7 353 353 13 357 352 348 356 358 349 356
73 51 30 40 7 14 21 19 30 13 14 15 14 12 5 7 2 357 354 352 3 5 352 351 353 5 5 355 347 341 333 319 24 15 357 18 9 356 351 349 4 360 5
85 59 34 18 2 33 22 23 28 12 15 15 14 11 6 8 3 357 350 347 4 343 339 345 359 21 10 2 351 343 334 342 5 37 12 7 13 1 354 346 359 29 8
97 59 49 19 19 32 21 28 26 20 12 18 13 10 8 7 2 352 348 346 349 345 342 357 13 29 12 8 359 352 332 351 10 33 18 3 22 358 351 350 34 53 24
105 53 54 20 37 24 22 29 26 25 14 16 10 10 6 6 1 354 343 343 345 344 344 12 19 16 27 14 5 353 352 351 11 40 22 13 11 0 352 352 6 4 18
120 97 59 345 36 24 28 23 31 24 21 14 9 6 4 3 360 351 342 341 343 353 351 12 19 15 28 16 7 1 358 353 354 29 39 18 1 4 360 3 4 7 360
118 102 149 56 34 16 25 31 29 27 20 13 7 5 359 359 354 343 340 346 351 3 359 7 14 16 22 15 8 6 3 354 350 17 13 17 359 4 9 6 4 5 357
110 147 95 83 18 31 8 49 35 28 19 11 8 2 354 350 349 346 355 0 359 7 4 1 15 15 21 13 8 11 0 356 352 2 7 7 3 8 14 9 2 4 359
133 109 115 80 45 17 32 56 38 31 16 14 8 358 344 343 12 357 11 13 5 7 9 3 8 8 15 9 6 9 5 358 348 350 358 1 3 10 14 18 12 9 356
139 110 123 79 57 28 26 59 31 25 20 11 356 334 348 353 30 12 13 21 11 8 8 2 1 360 7 4 5 6 8 2 350 343 2 359 8 13 16 16 19 13 7
118 172 128 91 60 44 46 52 15 13 3 330 309 291 9 346 50 29 23 22 12 8 8 358 356 353 356 357 1 359 1 6 358 358 9 6 9 13 14 18 20 14 13
161 165 129 90 68 49 44 44 344 296 278 274 351 2 26 3 25 44 33 27 16 10 3 360 357 351 354 356 358 353 355 3 1 359 4 1 8 10 11 11 17 12 11
149 87 72 78 69 58 37 347 303 284 303 30 48 359 23 21 11 67 27 28 40 18 2 9 0 350 357 1 3 2 5 9 358 358 6 10 12 11 11 10 10 5 7
124 93 97 102 89 54 12 307 346 27 358 26 26 33 14 20 12 14 22 83 11 173 44 35 21 352 4 8 9 10 12 17 10 10 13 13 10 10 5 4 0 0 3